Regional Weather Roundup
Issued by NWS Wakefield, VA

Current Version | Previous Version | Text Only | Print | Product List | Glossary On
Versions: 1 2 3 4 5 6 7 8 9 10 11 12 13 14 15 16 17 18 19 20 21 22 23 24 25 26 27
000
ASUS41 KAKQ 171115
RWRAKQ

REGIONAL WEATHER ROUNDUP
NATIONAL WEATHER SERVICE WAKEFIELD VA
600 AM EST TUE JAN 17 2017

Note: "fair" indicates few or no clouds below 12,000 feet with no
significant weather and/or obstructions to visibility. * = Denotes
station may not report precipitation (e.g., rain,snow,etc.),
thunder or fog.

VAZ042-051-052>054-056-171200-
NORTHERN VIRGINIA

CITY           SKY/WX    TMP DP  RH WIND       PRES   REMARKS
WASH NATIONAL  CLOUDY    41  39  93 CALM      30.20F
DULLES         CLOUDY    40  38  93 SE3       30.18F
FORT BELVOIR   CLOUDY    40  38  95 CALM      30.19F
QUANTICO       CLOUDY    41  40  96 SW3       30.21F
FREDERICKSBRG* CLOUDY    41  41 100 SE3       30.19F
STAFFORD*      CLOUDY    39  39 100 CALM      30.23F
WARRENTON      CLOUDY    42  38  88 CALM      30.17F
CULPEPER*      CLOUDY    41  41  99 CALM      30.19S
MANASSAS*      NOT AVBL
LEESBURG*      CLOUDY    43  43 100 MISG      30.19F FOG
WINCHESTER     CLOUDY    36  36 100 CALM      30.15F FOG
FRONT ROYAL*   CLOUDY    39  39 100 CALM      30.14F
LURAY*         CLOUDY    43  43 100 CALM      30.14F
$$

VAZ048-049-060>072-079>083-171200-
CENTRAL AND SOUTH CENTRAL VIRGINIA

CITY           SKY/WX    TMP DP  RH WIND       PRES   REMARKS
RICHMOND       CLOUDY    43  42  97 S7        30.21F FOG
CHESTERFIELD*  CLOUDY    43  27  52 S6        30.23F
PETERSBURG*    CLOUDY    41  39  93 CALM      30.23F FOG
HANOVER        CLOUDY    43  40  89 VRB3      30.21F
TAPPAHANNOCK*  CLOUDY    43  43 100 S5        30.22F
QUINTON*       CLOUDY    42  42 100 MISG      30.23S FOG
CHARLOTTSVILLE CLOUDY    42  39  89 CALM      30.16F
GORDONSVILLE*  CLOUDY    40  40  99 CALM      30.17F
ORANGE*          N/A     41  41 100 CALM      30.19F
LOUISA*        MOCLDY    45  43  93 S5        30.16F
BUMPASS*       PTSUNNY   40  40 100 CALM      30.19S
FARMVILLE*     CLOUDY    41  41  99 S3        30.18F
CREWE*         CLOUDY    41  41 100 CALM      30.21S
FORT PICKETT*  CLOUDY    43  39  87 S3        30.21F
CHASE CITY*    CLOUDY    43  42  95 CALM      30.22S
CLARKSVILLE*   CLOUDY    43  43 100 CALM      30.22S
SOUTH HILL*    CLOUDY    44  43  95 S5        30.29R
LAWRENCEVILLE* CLOUDY    44  42  95 MISG      30.23S
EMPORIA*       CLOUDY    43  41  93 NE3       30.25S
$$

VAZ088>098-171200-
SOUTHEAST VIRGINIA

CITY           SKY/WX    TMP DP  RH WIND       PRES   REMARKS
NORFOLK        CLOUDY    45  41  86 S6        30.24F
VIRGINIA BEACH CLOUDY    44  40  85 S6        30.24F
NORFOLK NAVAL  CLOUDY    46  42  86 S3        30.26S FOG
WEST POINT*    CLOUDY    43  42  95 S3        30.26S
SALUDA*        CLOUDY    42  41  95 CALM      30.24S
NEWPORT NEWS   CLOUDY    44  41  89 CALM      30.25R
LANGLEY AFB    CLOUDY    45  41  87 CALM      30.24S
FORT EUSTIS    CLOUDY    45  39  81 CALM      30.22S
WILLIAMSBURG*    N/A     45  43  93 CALM      30.25S
HR EXEC AP*    CLOUDY    45  39  81 CALM      30.24S
FRANKLIN*      CLOUDY    45  41  88 CALM      30.25S
US460-WAKEFLD  CLOUDY    44  43  96 CALM      30.24S
$$

VAZ020-022-025-037-045-171200-
WEST CENTRAL AND SOUTHWEST VIRGINIA

CITY           SKY/WX    TMP DP  RH WIND       PRES   REMARKS
STAUNTON*      CLOUDY    41  40  97 CALM      30.17S
WAYNESBORO*    CLOUDY    40  39  96 CALM      30.16S
HOT SPRINGS VA CLOUDY    48  45  87 SW13      30.14R
LYNCHBURG      MOCLDY    39  37  92 CALM      30.20S
DANVILLE       MOCLDY    45  43  93 S5        30.22S
SOUTH BOSTON*  CLOUDY    41  39  95 CALM      30.22S
MARTINSVILLE   CLOUDY    47  45  90 SW3       30.22F FOG
ROANOKE        FOG       41  41 100 CALM      30.21S VSB 3/4
BLACKSBURG     CLOUDY    43  43 100 CALM      30.20S FOG
DUBLIN*        LGT RAIN  44  44 100 CALM      30.18F VSB 1
MARION*        FOG       45  44  97 CALM      30.19S VSB 1/4
HILLSVILLE*    CLOUDY    50  50  99 S6        30.17S
RICHLANDS*     RAIN     N/A N/A N/A S5        30.14S
WISE*          DRIZZLE   54  48  82 S8        30.12F
ABINGDON*      CLOUDY    52  50  90 E6        30.14F
$$

MDZ021>025-VAZ099-100-171200-
SOUTHERN MARYLAND AND THE DELMARVA PENINSULA

CITY           SKY/WX    TMP DP  RH WIND       PRES   REMARKS
PATUXENT RIVER CLOUDY    41  38  89 SE6       30.22F
BAY BRIDGE APT CLOUDY    39  37  93 SE5       30.21F FOG
LEONARDTOWN    CLOUDY    39  36  87 SE3       30.22F
DOVER          LGT RAIN  39  39 100 CALM      30.23S
GEORGETOWN     CLOUDY    41  37  86 SW3       30.25F
EASTON         CLOUDY    40  38  90 S6        30.25F
CAMBRIDGE      CLOUDY    37  36  93 SE6       30.21F
SALISBURY      CLOUDY    41  37  86 CALM      30.25S
OCEAN CITY     CLOUDY    43  39  86 CALM      30.25S
WALLOPS ISLAND CLOUDY    43  40  89 CALM      30.25F
ACCOMACK*      CLOUDY    44  40  87 SW3       30.24F
$$

NCZ012>017-030>032-171200-
NORTH CENTRAL AND EASTERN NORTH CAROLINA

CITY           SKY/WX    TMP DP  RH WIND       PRES   REMARKS
ROANOKE RAPIDS CLOUDY    45  43  93 CALM      30.25R
RALEIGH        FOG       48  46  93 SW6       30.26R VSB 3/4
ELIZABETH CITY CLOUDY    42  39  89 NE3       30.26S
AHOSKIE*         N/A     44  41  91 CALM      30.26R
EDENTON*       CLOUDY    46  42  86 CALM      30.26S
CURRITUCK*     CLOUDY    42  42 100 CALM      30.27R
KILL DEVIL HLS NOT AVBL
MANTEO         CLOUDY    42  42  99 CALM      30.27R
CAPE HATTERAS  CLOUDY    48  44  86 VRB3      30.26S
TARBORO*       NOT AVBL
GOLDSBORO      MOCLDY    45  45 100 CALM      30.24R
WASHINGTON     CLOUDY    45  40  83 CALM      30.26F
GREENVILLE     CLOUDY    46  45  93 CALM      30.26S
NEW BERN       MOCLDY    45  41  86 CALM      30.27S
WILMINGTON     CLOUDY    48  47  96 CALM      30.24F
$$

VAZ048-171200-
ELSEWHERE

CITY           SKY/WX    TMP DP  RH WIND       PRES   REMARKS
HARRISBURG PA  CLOUDY    35  30  82 CALM      30.20F
BALTIMORE      CLOUDY    39  38  96 E3        30.21S
ANNAPOLIS      CLOUDY    40  36  86 E6        30.21F
ANDREWS AFB    CLOUDY    39  37  93 SE5       30.18F
PHILADELPHIA   CLOUDY    39  30  70 S3        30.25F
HENDERSON NC   CLOUDY    44  40  87 S6        30.24R
GREENSBORO     CLOUDY    48  47  96 SW8       30.22R FOG
ROCKY MOUNT    CLOUDY    47  45  93 CALM      30.26R
$$

VAZ100-171200-
MARINE

STATION/POSITION TIME  TEMP    WIND        PRES    WAVE   SWELL
                       AIR SEA DIR/SP/G            HT/PER HT/PER
                 (UTC) (F)     (DEG/KT/KT) (MB)    (FT/S) (FT/S)
CAPE MAY NJ      1048   40 40   CALM  /  2 1023.7F
LEWES DE         1042   41 41  200/  3/  4 1024.0F
OCEAN-CITY-INLET 1048           CALM  /  1 1024.6S
WACHAPREAGUE VA  1048   44 45  200/  2/  3 1024.0F
THOMAS POINT MD  1100   40 38  170/  9/ 10   N/A
GOOSES REEF MD   1100   40     170/ 10/ 10 1023.3
COVE POINT MD    1048   40     170/ 11/ 11 1023.7F
SOLOMONS ISLAND  1048          130/  6/  7   N/A
BISHOPS HEAD MD  1048   39 41  140/  5/  6 1024.1F
PINEY POINT MD   1048          160/  6/  6   N/A
POTOMAC MD       1100   41 40  170/  6/  6 1022.6
CAMBRIDGE MD     1048   40 38  140/  3/  6 1022.8F
LEWISETTA VA     1048   42 42  190/  6/  6 1023.2F
RAPPAHANNOCK LGT 1048          160/  7/  8 1024.4F
STINGRAY PT      1050   41     190/  6/  6 1024.3F
YORK RVR RNG VA  1048   43     180/  6/  7 1023.4F
YORKTOWN VA      1048   44 42  190/  2/  3 1023.8R
JAMESTOWN VA     1100   43 44  150/  4/  4   N/A     0
DOMINION TERM VA 1048   44     220/  2/  2 1024.3R
KIPTOPEKE VA     1048          160/  3/  3   N/A
CHES BAY BRIDGE  1048   43 42  160/  3/  5 1024.0F
CAPE HENRY VA    1048   44     150/  2/  3   N/A
WILLOUBY STN VA  1048   45     200/  3/  4 1025.0S
S CRANEY ISL VA  1048   44     200/  4/  5 1024.0S
CAPE HENRY BUOY  1042      47                N/A     2/ 9
OFFSHORE WE BUOY 1051      49                N/A     2/ 9
64NM E OF VA BCH 1050   53 54  350/  6/  8 1024.2F   2/ 9   2/ 9
DUCK PIER NC     1048   44 44   10/  3/  4 1023.7F
44100 DUCK FRF   1035      46                N/A     2/10
44056 DUCK FRF   1030      44                N/A     2/10
OREGON INLET NC  1042   45 48  360/  5/  6 1024.3F
HATTERAS NC      1048           10/  5/  7 1024.2S
DIAMOND SHLS NC  1050   56 72   20/  8/ 10 1024.3F   3/ 8   2/ 8
CAPE LOOKOUT NC  1000   49      30/  3/  4 1023.9F
$$




USA.gov is the U.S. government's official web portal to all federal, state and local government web resources and services.